FW8702 Weather Reports


time (UTC)temp
C
wind
direction
speed
KPH
gust
KPH
rain 1hr
cm
rain 24hr
cm
rain mn
cm
humidity
%
barometer
mb
20260505040010 13 323 0.0 0.0 0.00 0.00 0.00 85 1014.1
20260505034527 13 325 0.0 0.0 0.00 0.00 0.00 86 1013.9
20260505033051 13 21 0.0 0.0 0.00 0.00 0.00 85 1013.9
20260505031512 13 21 0.0 0.0 0.00 0.00 0.00 85 1013.9
20260505030127 13 21 0.0 0.0 0.00 0.00 0.00 84 1014.1
20260505024515 13 21 0.0 0.0 0.00 0.00 0.00 84 1014.2
20260505023043 13 195 0.0 0.0 0.00 0.00 0.00 84 1014.6
20260505021604 13 195 0.0 0.0 0.00 0.00 0.00 83 1014.7
20260505020004 13 195 0.0 0.0 0.00 0.00 0.00 83 1014.8
20260505014538 13 195 0.0 0.0 0.00 0.00 0.00 82 1014.8
20260505013048 13 195 0.0 0.0 0.00 0.00 0.00 82 1015.0
20260505011512 13 195 0.0 0.0 0.00 0.00 0.00 82 1015.3
20260505010113 13 195 0.0 1.6 0.00 0.00 0.00 82 1015.4
20260505004550 13 195 0.0 0.0 0.00 0.00 0.00 82 1015.8
20260505003100 13 195 0.0 0.0 0.00 0.00 0.00 82 1016.0
20260505001519 13 195 0.0 0.0 0.00 0.00 0.00 81 1016.3
20260505000100 13 195 0.0 0.0 0.00 0.00 0.00 81 1016.5
20260504234515 13 195 0.0 0.0 0.00 0.00 0.00 80 1016.5
20260504233044 13 195 0.0 0.0 0.00 0.00 0.00 79 1016.7
20260504231505 13 195 0.0 0.0 0.00 0.00 0.00 81 1017.0
20260504230024 13 195 0.0 0.0 0.00 0.00 0.00 80 1017.1
20260504224552 13 195 0.0 0.0 0.00 0.00 0.00 80 1017.1
20260504223014 13 195 0.0 0.0 0.00 0.00 0.00 79 1017.3
20260504221537 13 195 0.0 0.0 0.00 0.00 0.00 79 1017.4
20260504220046 14 195 0.0 0.0 0.00 0.00 0.00 78 1017.6
20260504214600 14 195 0.0 0.0 0.00 0.00 0.00 77 1017.7
20260504213035 15 195 0.0 0.0 0.00 0.00 0.00 75 1017.8
20260504211536 15 195 0.0 0.0 0.00 0.00 0.00 73 1017.8
20260504210018 15 213 0.0 0.0 0.00 0.00 0.00 76 1017.8
20260504204534 15 213 0.0 0.0 0.00 0.00 0.00 76 1017.9
20260504203046 15 213 0.0 0.0 0.00 0.00 0.00 75 1017.9
20260504201510 15 213 0.0 0.0 0.00 0.00 0.00 73 1017.9
20260504200026 15 213 0.0 0.0 0.00 0.00 0.00 73 1017.9
20260504194553 16 213 0.0 0.0 0.00 0.00 0.00 70 1017.6
20260504193011 16 206 0.0 0.0 0.00 0.00 0.00 69 1017.6
20260504191529 16 206 0.0 0.0 0.00 0.00 0.00 70 1017.4
20260504190026 17 206 0.0 0.0 0.00 0.00 0.00 70 1017.4
20260504184544 17 206 0.0 0.0 0.00 0.00 0.00 68 1017.3
20260504183107 18 206 0.0 0.0 0.00 0.00 0.00 65 1017.2
20260504181517 18 206 0.0 0.0 0.00 0.00 0.00 65 1017.1
20260504180012 18 206 0.0 0.0 0.00 0.00 0.00 63 1017.1
20260504174512 19 230 0.0 0.0 0.00 0.00 0.00 61 1017.0
20260504173024 20 230 0.0 0.0 0.00 0.00 0.00 54 1017.2
20260504171555 20 230 0.0 0.0 0.00 0.00 0.00 55 1017.1
20260504081528 17 178 0.0 0.0 0.00 0.00 0.00 68 1019.6
20260504050023 11 237 0.0 0.0 0.00 0.00 0.00 87 1018.5
20260504044555 11 237 0.0 0.0 0.00 0.00 0.00 87 1018.6
20260504043017 11 237 0.0 0.0 0.00 0.00 0.00 86 1018.6
20260504041530 11 237 0.0 0.0 0.00 0.00 0.00 86 1018.5